Change the Weather History Date:

Friday, October 28, 2011

  Actual Average Record
Temperature  
Mean Temperature 38 °F -  
Max Temperature 48 °F 62 °F 78 °F (1950)
Min Temperature 30 °F 31 °F 16 °F (1980)
Degree Days  
Heating Degree Days 27    
Moisture  
Dew Point 33 °F    
Average Humidity 89    
Maximum Humidity 100    
Minimum Humidity 63    
Precipitation  
Precipitation 0.00 in - - ()
Sea Level Pressure  
Sea Level Pressure 30.25 in    
Wind  
Wind Speed 6 mph (ESE)    
Max Wind Speed 15 mph    
Max Gust Speed -    
Visibility 5 miles    
Events Fog    
Averages and records for this station are not official NWS values.
T = Trace of Precipitation, MM = Missing Value Source: NWS Daily Summary

Daily Weather History Graph

Daily Weather History Graph

Search for Another Location

Airport or City:

Trip Planner

Search our weather history database for the weather conditions in past years. The results will help you decide how hot, cold, wet, or windy it might be!

Date:

Astronomy

Oct. 28, 2011 Rise Set
Actual Time 7:18 AM MDT 6:09 PM MDT
Civil Twilight 6:52 AM MDT 6:35 PM MDT
Nautical Twilight 6:22 AM MDT 7:05 PM MDT
Astronomical Twilight 5:52 AM MDT 7:35 PM MDT
Moon 9:31 AM MDT (10/28) 7:41 PM MDT (10/28)
Length of Visible Light 11h 43m
Length of Day
10h 51m
Waxing Crescent, 5% of the Moon is Illuminated
Oct 28
Waxing Crescent
Nov 2
First Quarter
Nov 10
Full
Nov 18
Last Quarter
Nov 24
New

Hourly Weather History & Observations

Time (MDT) Temp. Windchill Dew Point Humidity Pressure Visibility Wind Dir Wind Speed Gust Speed Precip Events Conditions
12:53 AM 32.0 °F 28.7 °F 32.0 °F 100% 30.17 in 0.2 mi Variable 3.5 mph - N/A Fog Fog
1:53 AM 32.0 °F 28.7 °F 32.0 °F 100% 30.17 in 0.2 mi NNW 3.5 mph - N/A Fog Fog
2:53 AM 30.9 °F 23.5 °F 30.9 °F 100% 30.19 in 0.2 mi NE 8.1 mph - N/A Fog Light Freezing Fog
3:53 AM 30.9 °F 26.2 °F 30.9 °F 100% 30.17 in 0.2 mi NE 4.6 mph - N/A Fog Light Freezing Fog
4:53 AM 30.0 °F 22.4 °F 30.0 °F 100% 30.20 in 0.2 mi NNE 8.1 mph - N/A Fog Light Freezing Fog
5:53 AM 30.9 °F 23.5 °F 30.9 °F 100% 30.20 in 0.2 mi NE 8.1 mph - N/A Fog Light Freezing Fog
6:53 AM 30.9 °F 24.3 °F 30.9 °F 100% 30.25 in 0.2 mi NNE 6.9 mph - N/A Fog Light Freezing Fog
7:53 AM 30.9 °F 23.5 °F 30.9 °F 100% 30.28 in 0.2 mi NNE 8.1 mph - N/A Fog Light Freezing Fog
8:53 AM 30.9 °F 27.5 °F 30.9 °F 100% 30.31 in 0.2 mi NNE 3.5 mph - N/A Fog Light Freezing Fog
9:53 AM 32.0 °F - 32.0 °F 100% 30.32 in 0.2 mi Calm Calm - N/A Fog Fog
10:15 AM 33.8 °F - 33.8 °F 100% 30.35 in 1.0 mi Calm Calm - N/A   Overcast
10:20 AM 33.8 °F 30.8 °F 33.8 °F 100% 30.34 in 3.0 mi NNE 3.5 mph - N/A   Overcast
11:53 AM 39.9 °F 35.1 °F 32.0 °F 73% 30.29 in 10.0 mi SSE 6.9 mph - N/A   Clear
12:53 PM 42.1 °F 37.7 °F 34.0 °F 73% 30.26 in 10.0 mi Variable 6.9 mph - N/A   Partly Cloudy
1:53 PM 45.0 °F 41.2 °F 35.1 °F 68% 30.23 in 10.0 mi Variable 6.9 mph - N/A   Partly Cloudy
2:53 PM 46.9 °F - 35.1 °F 63% 30.22 in 10.0 mi South 5.8 mph - N/A   Clear
3:53 PM 46.9 °F - 36.0 °F 66% 30.21 in 10.0 mi SSE 11.5 mph - N/A   Clear
4:53 PM 46.9 °F - 36.0 °F 66% 30.22 in 10.0 mi South 12.7 mph - N/A   Clear
5:53 PM 42.1 °F 35.2 °F 34.0 °F 73% 30.24 in 10.0 mi SSE 12.7 mph - N/A   Clear
7:53 PM 37.0 °F 28.5 °F 33.1 °F 86% 30.28 in 10.0 mi SSW 13.8 mph - N/A   Clear
8:53 PM 35.1 °F 25.9 °F 32.0 °F 89% 30.29 in 10.0 mi SSW 13.8 mph - N/A   Clear
9:53 PM 34.0 °F 24.2 °F 33.1 °F 96% 30.28 in 10.0 mi South 15.0 mph - N/A   Clear
10:53 PM 34.0 °F 25.0 °F 33.1 °F 96% 30.24 in 10.0 mi South 12.7 mph - N/A   Clear
11:53 PM 33.1 °F 24.4 °F 32.0 °F 96% 30.20 in 10.0 mi South 11.5 mph - N/A   Clear